Regional Weather Roundup
Issued by NWS

Home | Current Version | Previous Version | Graphics & Text | Print | Product List | Glossary On
Versions: 1 2 3 4 5 6 7 8 9 10 11 12 13 14 15 16 17 18 19 20 21 22 23 24 25 26 27 28 29 30 31 32 33 34 35 36 37 38 39 40 41 42 43 44 45 46 47 48 49 50
475
ASUS43 KLOT 141858
RWRIL

ILLINOIS REGIONAL WEATHER ROUNDUP
NATIONAL WEATHER SERVICE CHICAGO/ROMEOVILLE IL
100 PM CST SUN FEB 14 2016

NOTE: "FAIR" INDICATES FEW OR NO CLOUDS BELOW 12,000 FEET WITH NO
SIGNIFICANT WEATHER AND/OR OBSTRUCTIONS TO VISIBILITY.

* THESE STATIONS ARE NOT UNDER NWS QUALITY CONTROL. THEY ALSO MAY NOT
  REPORT WEATHER SUCH AS PRECIPITATION OR FOG.

ILZ001-002-007-009-015-016-024-142000-
NORTHWEST ILLINOIS

CITY           SKY/WX    TMP DP  RH WIND       PRES   REMARKS
MOLINE         NOT AVBL
$$

ILZ003-004-008-010-011-017-018-142000-
NORTH CENTRAL ILLINOIS

CITY           SKY/WX    TMP DP  RH WIND       PRES   REMARKS
ROCKFORD       NOT AVBL
$$

ILZ005-006-012>014-019>023-142000-
NORTHEAST ILLINOIS

CITY           SKY/WX    TMP DP  RH WIND       PRES   REMARKS
CHICAGO-OHARE  SNOW      15  11  83 SE14      30.19F VSB 1/2 WCI   0
CHICAGO-MIDWAY NOT AVBL
AURORA         SNOW      18  12  79 E16       30.16F VSB 1/2 WCI   3
WAUKEGAN       LGT SNOW  16  10  77 S13       30.20F VSB 1   WCI   2
DUPAGE AIRPORT LGT SNOW  16  10  79 SE13      30.16F VSB 1   WCI   2
WHEELING       SNOW      15  11  83 SE10      30.22F VSB 1/2 WCI   2
NORTHERLY ISL    N/A     16  10  77 SE12        N/A  WCI   3
$$

LMZ740>746-142000-
SOUTHERN LAKE MICHIGAN

STATION/POSITION SKY/WX   TEMP    WIND        PRES    VSBY  WAVE
                          AIR SEA DIR/SP/G                  HT/PER
                          (F)     (DEG/KT/KT) (MB)    (MI)  (FT/S)
HARRISON CRIB              18     160/ 17/ 21   N/A
BURNHAM HARBOR             18     150/ 12/ 17   N/A
CALUMET HARBOR             17     150/ 11/ 17 1023.6F
BURNS HARBOR               17     140/ 12/ 20 1024.7F
MICHIGAN CITY              15     120/ 11/ 14   N/A
$$

ILZ025>027-034>036-040-047-049-050-058-095>099-142000-
WEST-CENTRAL ILLINOIS

CITY           SKY/WX    TMP DP  RH WIND       PRES   REMARKS
$$

ILZ028>032-037-038-041>044-048-051>054-059>061-142000-
CENTRAL ILLINOIS

CITY           SKY/WX    TMP DP  RH WIND       PRES   REMARKS
BLOOMINGTON    LGT SNOW  21  16  79 SE22      30.10F WCI   5
PEORIA         NOT AVBL
SPRINGFIELD    NOT AVBL
TAYLORVILLE    NOT AVBL
$$

ILZ033-039-045-046-055>057-062-063-142000-
EAST-CENTRAL ILLINOIS

CITY           SKY/WX    TMP DP  RH WIND       PRES   REMARKS
CHAMPAIGN      SNOW      19  16  86 SE17      30.13F VSB 1/2 WCI   4
$$

ILZ079-100>102-142000-
SOUTHWEST ILLINOIS

CITY           SKY/WX    TMP DP  RH WIND       PRES   REMARKS
ALTON          LGT SNOW  23  19  86 SE16      30.08F WCI  10
$$

ILZ064>066-069>071-074>076-080>082-084>086-088>090-092>094-142000-
SOUTH-CENTRAL ILLINOIS

CITY           SKY/WX    TMP DP  RH WIND       PRES   REMARKS
CARBONDALE     LGT SNOW  25  19  80 SE9       30.08F WCI  15
MARION         LGT SNOW  27  23  86 SE12      30.09F WCI  16
$$

ILZ067-068-072-073-078-083-087-091-142000-
SOUTHEAST ILLINOIS

CITY           SKY/WX    TMP DP  RH WIND       PRES   REMARKS
LAWRENCEVILLE  SNOW      21  18  86 SE15      30.17F VSB 1/4 WCI   8
$$

ABBREVIATIONS USED IN REMARKS
   TC - TEMPERATURE IN CELSIUS
  WCI - WIND CHILL INDEX
   HX - HEAT INDEX
  VSB - VISIBILITY
$$





USA.gov is the U.S. government's official web portal to all federal, state and local government web resources and services.